Location: Hiram
(41.3130°N, 81.1440°W)
Time: 19:48:48
(UTC-04:00)

Daily predictions for brighter satellites

Satellite Brightness Start Highest point End
(mag) Time Altitude Azimuth Time Altitude Azimuth Time Altitude Azimuth
CZ-2C R/B 3.4 19:23:25 10° S 19:28:12 53° W 19:32:53 10° NNW
ATLAS CENTAUR R/B 3.5 19:26:09 10° SSW 19:30:41 69° SE 19:44:50 10° NE
USA 215 4.2 19:26:01 10° ENE 19:31:20 26° SE 19:36:38 10° S
CZ-4 R/B 4.5 19:30:03 10° SW 19:33:03 21° W 19:36:03 10° NW
FREGAT/IRIS 3.8 19:30:48 10° SE 19:33:24 25° ENE 19:36:00 10° NNE
Cosmos 1544 4.4 19:31:13 10° SE 19:34:04 21° E 19:36:56 10° NE
Cosmos 1484 Rocket 2.7 19:31:27 10° SSE 19:35:17 82° ENE 19:39:14 10° N
Cosmos 724 4.4 19:31:31 10° SSW 19:37:18 59° ESE 19:43:16 10° NE
SAR-Lupe-4 3.7 19:34:20 10° SSE 19:37:47 50° ENE 19:41:16 10° N
OAO 3 Rocket 4.1 19:37:38 10° WSW 19:42:00 38° S 19:46:25 10° ESE
Cosmos 1758 3.7 19:40:09 10° SSE 19:44:02 44° E 19:47:57 10° NNE
Cosmos 1464 Rocket 4.0 19:38:42 10° S 19:44:54 72° E 19:51:03 10° NNE
Cosmos 2034 Rocket 4.1 19:39:05 10° SSE 19:45:08 54° E 19:51:17 10° NNE
SL-16 R/B 3.0 19:42:54 10° SW 19:48:29 57° WNW 19:54:06 10° NNE
Cosmos 1378 3.6 19:45:23 10° NNW 19:49:05 65° W 19:52:46 10° S
Cosmos 1408 Rocket 3.5 19:45:25 10° N 19:49:45 69° E 19:54:02 10° SSE
SKYMED 2 4.0 19:46:09 10° N 19:50:29 67° WNW 19:54:47 10° SSW
Meteor 1-21 Rocket 4.3 19:49:52 10° N 19:55:19 55° ENE 20:00:43 10° SSE
Cosmos 1766 4.2 19:52:35 10° SSW 19:56:28 54° W 20:00:25 10° N
Spot 1 4.3 19:55:44 10° SSE 20:00:17 55° ENE 20:04:36 10° N
Helios 1A 3.5 19:56:48 10° SE 20:00:44 40° ENE 20:04:41 10° N
CZ-4C R/B 4.4 19:56:23 10° W 20:00:48 23° NW 20:05:39 10° NNE
NOSS 3-2 (A) 4.4 20:00:01 10° WSW 20:05:56 50° NW 20:12:27 10° NNE
Meteor 1-28 Rocket 3.1 20:04:13 10° N 20:07:57 87° W 20:11:39 10° SSW
Meteor 1-29 3.5 20:06:21 10° NNE 20:09:37 36° E 20:12:50 10° SSE
GPS 2-04 Rocket1 3.6 20:10:34 10° SW 20:13:35 28° S 20:15:05 20° SE
NOAA 12 4.3 20:11:19 10° S 20:16:34 76° WSW 20:21:53 10° NNW
ASTEX 1 3.8 20:13:11 10° NNE 20:17:46 38° E 20:22:19 10° SSE
H-2A R/B 3.7 20:17:05 24° E 20:18:10 27° ENE 20:21:28 10° NNE
Cosmos 1943 Rocket 3.5 20:15:21 10° N 20:19:35 21° NE 20:21:11 19° ENE
Cosmos 1743 Rocket 3.5 20:16:08 10° N 20:20:35 71° E 20:24:57 10° SSE
Cosmos 1452 Rocket 4.3 20:15:30 10° NNW 20:20:38 54° WSW 20:25:43 10° S
Resurs 1-3 3.6 20:17:01 10° SSE 20:21:20 60° ENE 20:25:41 10° N
Cosmos 1805 3.8 20:18:12 10° SSW 20:22:05 61° W 20:26:00 10° N
ALOS 2.5 20:20:14 12° SE 20:24:17 47° ENE 20:28:46 10° N
Cosmos 2251 Rocket 4.3 20:22:07 10° SSE 20:26:24 26° E 20:30:42 10° NE
Cosmos 2369 Rocket 2.4 20:22:01 10° NNW 20:27:32 51° ENE 20:31:02 22° SE
Cosmos 1943 3.3 20:23:30 10° S 20:28:56 52° ESE 20:34:23 10° NNE
Resurs 01 Rocket 1.6 20:25:01 10° SSE 20:29:27 85° W 20:33:56 10° NNW
Helios 1B rocket 2.3 20:25:38 10° NNE 20:29:46 85° ESE 20:33:53 10° SSW
SL-8 R/B 3.8 20:26:25 10° WSW 20:31:12 78° NNW 20:34:18 22° ENE
CENTAUR R/B 2.5 20:25:22 10° SSW 20:31:15 61° ESE 20:37:53 10° NE
Gbstr 26 Del rocket 3.2 20:28:56 10° SW 20:33:16 66° SE 20:36:27 23° ENE
Cosmos 1953 3.7 20:32:00 10° SSW 20:35:46 41° WNW 20:39:34 10° N
Cosmos 1603 4.3 20:30:36 10° SW 20:36:16 61° WNW 20:41:59 10° NNE
ISS -3.0 20:33:25 10° WSW 20:36:38 62° NNW 20:37:49 34° NE
BREEZE-M DEB (TANK) 4.0 20:24:31 10° W 20:39:01 62° N 20:41:39 28° ENE
Cosmos 1420 Rocket 4.4 20:34:33 10° NNW 20:39:50 67° WSW 20:45:05 10° S
Cosmos 1733 3.1 20:36:34 10° S 20:40:24 66° E 20:44:15 10° NNE
ERBS 4.1 20:42:01 10° NNW 20:44:31 21° NNE 20:44:31 21° NNE
Cosmos 1470 2.7 20:43:41 10° S 20:47:34 81° W 20:51:28 10° N
Nadezhda 4 Rocket 4.2 20:41:51 10° NNW 20:48:05 71° W 20:54:14 10° S
Cosmos 1674 2.9 20:44:28 10° NNW 20:48:21 72° W 20:51:28 15° S
Cosmos 2279 Rocket 4.4 20:48:01 33° ESE 20:49:29 37° E 20:55:07 10° NNE
GP-B 3.1 20:47:56 10° N 20:52:19 56° E 20:52:57 51° ESE
Cosmos 2058 4.0 20:49:16 10° N 20:51:47 29° NE 20:51:47 29° NE
Spot 2 Rocket 4.3 20:48:34 10° S 20:53:27 51° W 20:58:22 10° NNW
Abrixas 3.8 20:53:17 10° W 20:56:04 35° NNW 20:56:04 35° NNW
Cosmos 1092 Rocket 4.0 20:51:55 10° N 20:58:08 82° W 21:04:16 10° S
Cosmos 2151 2.8 20:57:17 10° N 21:01:32 73° E 21:01:36 73° E
ATLAS 5 CENTAUR R/B 4.1 20:58:51 10° W 21:02:47 23° NW 21:06:59 10° NNE
Envisat 4.1 21:05:37 28° NE 21:05:37 28° NE 21:08:52 10° N
Cosmos 2142 Rocket 4.4 21:00:55 10° S 21:07:17 85° E 21:13:43 10° N
Cosmos 1655 Rocket 3.9 21:02:20 10° N 21:08:31 62° E 21:10:10 46° SE
Meteor 2-1 Rocket 4.3 21:08:30 53° ESE 21:08:58 54° E 21:14:42 10° NNE
Cosmos 2026 Rocket 3.8 21:03:02 10° N 21:09:09 70° E 21:11:21 41° SSE
Cosmos 158 Rocket 4.0 21:05:40 10° SSW 21:10:30 69° WNW 21:15:24 10° NNE
Cosmos 1174 4.4 21:05:57 10° SW 21:10:34 58° WNW 21:12:05 34° N
Meteor 1-16 Rocket 3.9 21:06:09 10° S 21:11:25 76° E 21:16:45 10° NNE
Cosmos 1634 Rocket 4.0 21:08:03 10° S 21:14:18 81° W 21:20:32 10° N
USA 215 3.2 21:09:20 16° NE 21:14:46 83° NW 21:21:19 10° SW
Meteor 1-11 4.1 21:18:17 10° N 21:24:06 89° E 21:25:15 59° S
Meteor 2-20 4.4 21:24:29 10° N 21:30:11 62° ENE 21:30:11 62° ENE
ERS-1 Rocket 3.7 21:35:49 44° N 21:35:49 44° N 21:39:21 10° N
Cosmos 1943 Rocket 2.8 21:58:16 10° NNW 22:02:44 51° WNW 22:02:44 51° WNW
Cosmos 2369 Rocket 4.1 22:06:51 10° NW 22:11:10 23° W 22:12:52 20° SW
CENTAUR R/B 4.2 22:16:55 10° W 22:22:24 31° NW 22:28:31 10° NNE
